| time (UTC) | temp C | wind direction | speed KPH | gust KPH | rain 1hr cm | rain 24hr cm | rain mn cm | humidity % | barometer mb |
| 20260509215243 | 26 | 304 | 6.4 | 24.1 | 0.00 | 0.00 | 0.00 | 41 | 1011.4 |
| 20260509214743 | 26 | 251 | 3.2 | 17.7 | 0.00 | 0.00 | 0.00 | 41 | 1011.5 |
| 20260509214242 | 26 | 298 | 12.9 | 20.9 | 0.00 | 0.00 | 0.00 | 40 | 1011.5 |
| 20260509213743 | 26 | 343 | 9.7 | 24.1 | 0.00 | 0.00 | 0.00 | 40 | 1011.5 |
| 20260509213242 | 26 | 306 | 8.0 | 24.1 | 0.00 | 0.00 | 0.00 | 40 | 1011.6 |
| 20260509212743 | 26 | 321 | 4.8 | 17.7 | 0.00 | 0.00 | 0.00 | 40 | 1011.6 |
| 20260509211742 | 26 | 303 | 8.0 | 19.3 | 0.00 | 0.00 | 0.00 | 40 | 1011.7 |
| 20260509211242 | 26 | 272 | 0.0 | 19.3 | 0.00 | 0.00 | 0.00 | 40 | 1011.7 |
| 20260509210742 | 26 | 298 | 4.8 | 14.5 | 0.00 | 0.00 | 0.00 | 40 | 1011.7 |
| 20260509205743 | 26 | 281 | 3.2 | 19.3 | 0.00 | 0.00 | 0.00 | 39 | 1011.9 |
| 20260509205242 | 26 | 265 | 3.2 | 19.3 | 0.00 | 0.00 | 0.00 | 39 | 1012.0 |
| 20260509204743 | 26 | 275 | 4.8 | 11.3 | 0.00 | 0.00 | 0.00 | 39 | 1012.0 |
| 20260509204243 | 26 | 254 | 1.6 | 11.3 | 0.00 | 0.00 | 0.00 | 39 | 1012.0 |
| 20260509203743 | 26 | 311 | 1.6 | 11.3 | 0.00 | 0.00 | 0.00 | 39 | 1012.0 |
| 20260509202742 | 26 | 312 | 4.8 | 9.7 | 0.00 | 0.00 | 0.00 | 38 | 1012.1 |
| 20260509202243 | 26 | 287 | 3.2 | 9.7 | 0.00 | 0.00 | 0.00 | 38 | 1012.2 |
| 20260509201743 | 25 | 286 | 3.2 | 11.3 | 0.00 | 0.00 | 0.00 | 38 | 1012.3 |
| 20260509201243 | 25 | 249 | 0.0 | 11.3 | 0.00 | 0.00 | 0.00 | 38 | 1012.3 |
| 20260509200742 | 25 | 290 | 0.0 | 11.3 | 0.00 | 0.00 | 0.00 | 37 | 1012.3 |
| 20260509200243 | 25 | 291 | 6.4 | 12.9 | 0.00 | 0.00 | 0.00 | 37 | 1012.3 |
| 20260509195742 | 25 | 323 | 0.0 | 12.9 | 0.00 | 0.00 | 0.00 | 37 | 1012.4 |
| 20260509195242 | 25 | 313 | 0.0 | 16.1 | 0.00 | 0.00 | 0.00 | 36 | 1012.4 |
| 20260509194743 | 25 | 291 | 0.0 | 16.1 | 0.00 | 0.00 | 0.00 | 36 | 1012.5 |
| 20260509194243 | 25 | 296 | 3.2 | 9.7 | 0.00 | 0.00 | 0.00 | 36 | 1012.6 |
| 20260509193742 | 25 | 303 | 1.6 | 9.7 | 0.00 | 0.00 | 0.00 | 35 | 1012.5 |
| 20260509193242 | 24 | 305 | 0.0 | 9.7 | 0.00 | 0.00 | 0.00 | 34 | 1012.6 |
| 20260509192742 | 24 | 305 | 9.7 | 11.3 | 0.00 | 0.00 | 0.00 | 34 | 1012.6 |
| 20260509192242 | 23 | 306 | 0.0 | 11.3 | 0.00 | 0.00 | 0.00 | 34 | 1012.6 |
| 20260509191742 | 23 | 306 | 0.0 | 8.0 | 0.00 | 0.00 | 0.00 | 34 | 1012.8 |
| 20260509191242 | 23 | 306 | 4.8 | 8.0 | 0.00 | 0.00 | 0.00 | 33 | 1012.8 |
| 20260509190743 | 23 | 306 | 0.0 | 9.7 | 0.00 | 0.00 | 0.00 | 32 | 1013.0 |
| 20260509190242 | 22 | 306 | 3.2 | 9.7 | 0.00 | 0.00 | 0.00 | 32 | 1013.1 |
| 20260509185243 | 21 | 308 | 8.0 | 9.7 | 0.00 | 0.00 | 0.00 | 32 | 1013.0 |
| 20260509184742 | 21 | 301 | 4.8 | 9.7 | 0.00 | 0.00 | 0.00 | 31 | 1013.0 |
| 20260509184243 | 21 | 301 | 4.8 | 8.0 | 0.00 | 0.00 | 0.00 | 32 | 1013.1 |
| 20260509183742 | 20 | 130 | 0.0 | 9.7 | 0.00 | 0.00 | 0.00 | 32 | 1013.2 |
| 20260509182742 | 20 | 310 | 0.0 | 8.0 | 0.00 | 0.00 | 0.00 | 31 | 1013.3 |
| 20260509182242 | 20 | 313 | 0.0 | 8.0 | 0.00 | 0.00 | 0.00 | 31 | 1013.3 |
| 20260509181743 | 20 | 207 | 1.6 | 6.4 | 0.00 | 0.00 | 0.00 | 31 | 1013.3 |
| 20260509181242 | 20 | 207 | 0.0 | 9.7 | 0.00 | 0.00 | 0.00 | 31 | 1013.3 |
| 20260509180742 | 20 | 311 | 4.8 | 9.7 | 0.00 | 0.00 | 0.00 | 30 | 1013.5 |
| 20260509180242 | 19 | 271 | 8.0 | 9.7 | 0.00 | 0.00 | 0.00 | 30 | 1013.3 |
| 20260509175742 | 19 | 253 | 1.6 | 14.5 | 0.00 | 0.00 | 0.00 | 30 | 1013.3 |
| 20260509175242 | 19 | 306 | 0.0 | 14.5 | 0.00 | 0.00 | 0.00 | 29 | 1013.3 |
| 20260509174742 | 18 | 280 | 6.4 | 6.4 | 0.00 | 0.00 | 0.00 | 29 | 1013.3 |
| 20260509174242 | 18 | 280 | 1.6 | 11.3 | 0.00 | 0.00 | 0.00 | 28 | 1013.3 |
| 20260509173242 | 17 | 280 | 4.8 | 8.0 | 0.00 | 0.00 | 0.00 | 25 | 1013.3 |
| 20260509172242 | 16 | 280 | 1.6 | 4.8 | 0.00 | 0.00 | 0.00 | 24 | 1013.3 |
| 20260509171742 | 16 | 280 | 1.6 | 4.8 | 0.00 | 0.00 | 0.00 | 23 | 1013.3 |
| 20260509171242 | 16 | 280 | 0.0 | 1.6 | 0.00 | 0.00 | 0.00 | 21 | 1013.3 |
| 20260509170742 | 16 | 280 | 0.0 | 4.8 | 0.00 | 0.00 | 0.00 | 20 | 1013.4 |
| 20260509170242 | 15 | 280 | 0.0 | 4.8 | 0.00 | 0.00 | 0.00 | 19 | 1013.3 |
| 20260509165742 | 15 | 280 | 0.0 | 3.2 | 0.00 | 0.00 | 0.00 | 15 | 1013.3 |
| 20260509165242 | 15 | 280 | 0.0 | 3.2 | 0.00 | 0.00 | 0.00 | 14 | 1013.3 |
| 20260509164742 | 15 | 280 | 0.0 | 4.8 | 0.00 | 0.00 | 0.00 | 13 | 1013.3 |
| 20260509164242 | 14 | 280 | 0.0 | 4.8 | 0.00 | 0.00 | 0.00 | 13 | 1013.3 |
| 20260509163744 | 13 | 280 | 0.0 | 0.0 | 0.00 | 0.00 | 0.00 | 13 | 1013.4 |
| 20260509163242 | 13 | 280 | 0.0 | 0.0 | 0.00 | 0.00 | 0.00 | 12 | 1013.4 |
| 20260509162742 | 13 | 280 | 0.0 | 0.0 | 0.00 | 0.00 | 0.00 | 12 | 1013.4 |
| 20260509162242 | 13 | 280 | 0.0 | 0.0 | 0.00 | 0.00 | 0.00 | 12 | 1013.3 |
| 20260509161742 | 13 | 280 | 0.0 | 0.0 | 0.00 | 0.00 | 0.00 | 13 | 1013.3 |
| 20260509161242 | 13 | 280 | 0.0 | 0.0 | 0.00 | 0.00 | 0.00 | 13 | 1013.3 |
| 20260509160242 | 13 | 280 | 0.0 | 0.0 | 0.00 | 0.00 | 0.00 | 13 | 1013.3 |
| 20260509155742 | 13 | 280 | 0.0 | 0.0 | 0.00 | 0.00 | 0.00 | 13 | 1013.3 |
| 20260509155242 | 12 | 280 | 0.0 | 0.0 | 0.00 | 0.00 | 0.00 | 13 | 1013.3 |
| 20260509154742 | 12 | 280 | 0.0 | 0.0 | 0.00 | 0.00 | 0.00 | 13 | 1013.3 |
| 20260509154242 | 12 | 280 | 0.0 | 0.0 | 0.00 | 0.00 | 0.00 | 13 | 1013.4 |
| 20260509153742 | 12 | 280 | 0.0 | 0.0 | 0.00 | 0.00 | 0.00 | 13 | 1013.5 |
| 20260509153242 | 12 | 280 | 0.0 | 0.0 | 0.00 | 0.00 | 0.00 | 13 | 1013.5 |
| 20260509152742 | 12 | 280 | 0.0 | 0.0 | 0.00 | 0.00 | 0.00 | 13 | 1013.5 |
| 20260509152242 | 12 | 280 | 0.0 | 0.0 | 0.00 | 0.00 | 0.00 | 13 | 1013.5 |
| 20260509151742 | 12 | 280 | 0.0 | 0.0 | 0.00 | 0.00 | 0.00 | 13 | 1013.5 |
| 20260509150242 | 12 | 280 | 0.0 | 0.0 | 0.00 | 0.00 | 0.00 | 13 | 1013.3 |
| 20260509145742 | 12 | 280 | 0.0 | 0.0 | 0.00 | 0.00 | 0.00 | 13 | 1013.4 |
| 20260509145242 | 12 | 280 | 0.0 | 0.0 | 0.00 | 0.00 | 0.00 | 14 | 1013.4 |
| 20260509144742 | 12 | 280 | 0.0 | 0.0 | 0.00 | 0.00 | 0.00 | 14 | 1013.6 |
| 20260509143742 | 12 | 280 | 0.0 | 3.2 | 0.00 | 0.00 | 0.00 | 13 | 1013.4 |
| 20260509143241 | 12 | 280 | 0.0 | 4.8 | 0.00 | 0.00 | 0.00 | 13 | 1013.4 |
| 20260509142743 | 12 | 280 | 0.0 | 4.8 | 0.00 | 0.00 | 0.00 | 14 | 1013.4 |
| 20260509142241 | 12 | 280 | 0.0 | 0.0 | 0.00 | 0.00 | 0.00 | 14 | 1013.3 |
| 20260509141742 | 12 | 280 | 0.0 | 0.0 | 0.00 | 0.00 | 0.00 | 14 | 1013.2 |
| 20260509141242 | 12 | 280 | 0.0 | 0.0 | 0.00 | 0.00 | 0.00 | 14 | 1013.0 |
| 20260509140741 | 12 | 280 | 0.0 | 0.0 | 0.00 | 0.00 | 0.00 | 14 | 1013.0 |
| 20260509140242 | 12 | 280 | 0.0 | 0.0 | 0.00 | 0.00 | 0.00 | 14 | 1012.9 |
| 20260509135741 | 12 | 280 | 0.0 | 0.0 | 0.00 | 0.00 | 0.00 | 13 | 1013.0 |
| 20260509135241 | 12 | 280 | 0.0 | 0.0 | 0.00 | 0.00 | 0.00 | 13 | 1013.0 |
| 20260509134742 | 12 | 280 | 0.0 | 0.0 | 0.00 | 0.00 | 0.00 | 13 | 1013.1 |
| 20260509133741 | 12 | 280 | 0.0 | 0.0 | 0.00 | 0.00 | 0.00 | 13 | 1013.0 |
| 20260509133241 | 12 | 280 | 0.0 | 0.0 | 0.00 | 0.00 | 0.00 | 13 | 1013.0 |
| 20260509132742 | 12 | 280 | 0.0 | 0.0 | 0.00 | 0.00 | 0.00 | 13 | 1013.0 |
| 20260509132241 | 12 | 280 | 0.0 | 0.0 | 0.00 | 0.00 | 0.00 | 13 | 1013.1 |
| 20260509131742 | 12 | 280 | 0.0 | 0.0 | 0.00 | 0.00 | 0.00 | 13 | 1013.1 |
| 20260509131242 | 12 | 280 | 0.0 | 0.0 | 0.00 | 0.00 | 0.00 | 13 | 1013.1 |
| 20260509130742 | 12 | 280 | 0.0 | 0.0 | 0.00 | 0.00 | 0.00 | 13 | 1013.1 |
| 20260509130242 | 12 | 280 | 0.0 | 0.0 | 0.00 | 0.00 | 0.00 | 13 | 1013.2 |
| 20260509125742 | 12 | 280 | 0.0 | 0.0 | 0.00 | 0.00 | 0.00 | 13 | 1013.2 |
| 20260509125242 | 12 | 280 | 0.0 | 0.0 | 0.00 | 0.00 | 0.00 | 13 | 1013.1 |
| 20260509124242 | 12 | 280 | 0.0 | 0.0 | 0.00 | 0.00 | 0.00 | 13 | 1013.1 |
| 20260509123241 | 12 | 280 | 0.0 | 0.0 | 0.00 | 0.00 | 0.00 | 13 | 1013.0 |
| 20260509122741 | 12 | 280 | 0.0 | 0.0 | 0.00 | 0.00 | 0.00 | 13 | 1013.1 |
| 20260509122241 | 12 | 280 | 0.0 | 0.0 | 0.00 | 0.00 | 0.00 | 13 | 1013.1 |
| 20260509121241 | 12 | 280 | 0.0 | 0.0 | 0.00 | 0.00 | 0.00 | 13 | 1013.1 |
| 20260509120742 | 12 | 280 | 0.0 | 0.0 | 0.00 | 0.00 | 0.00 | 13 | 1013.1 |
| 20260509120242 | 12 | 280 | 0.0 | 0.0 | 0.00 | 0.00 | 0.00 | 13 | 1013.1 |
| 20260509114743 | 12 | 280 | 0.0 | 0.0 | 0.00 | 0.00 | 0.00 | 13 | 1013.2 |
| 20260509114242 | 12 | 280 | 0.0 | 0.0 | 0.00 | 0.00 | 0.00 | 13 | 1013.2 |
| 20260509113742 | 12 | 280 | 0.0 | 0.0 | 0.00 | 0.00 | 0.00 | 13 | 1013.3 |
| 20260509113242 | 12 | 280 | 0.0 | 0.0 | 0.00 | 0.00 | 0.00 | 13 | 1013.4 |
| 20260509112242 | 12 | 280 | 0.0 | 0.0 | 0.00 | 0.00 | 0.00 | 13 | 1013.3 |
| 20260509111743 | 12 | 280 | 0.0 | 0.0 | 0.00 | 0.00 | 0.00 | 13 | 1013.4 |
| 20260509110742 | 12 | 280 | 0.0 | 0.0 | 0.00 | 0.00 | 0.00 | 13 | 1013.5 |
| 20260509110241 | 12 | 280 | 0.0 | 0.0 | 0.00 | 0.00 | 0.00 | 13 | 1013.4 |
| 20260509105742 | 12 | 280 | 0.0 | 0.0 | 0.00 | 0.00 | 0.00 | 13 | 1013.6 |
| 20260509105242 | 12 | 280 | 0.0 | 0.0 | 0.00 | 0.00 | 0.00 | 13 | 1013.8 |
| 20260509104741 | 12 | 280 | 0.0 | 0.0 | 0.00 | 0.00 | 0.00 | 13 | 1013.7 |
| 20260509104241 | 12 | 280 | 0.0 | 0.0 | 0.00 | 0.00 | 0.00 | 13 | 1013.7 |
| 20260509103241 | 12 | 280 | 0.0 | 0.0 | 0.00 | 0.00 | 0.00 | 13 | 1013.8 |
| 20260509102741 | 12 | 280 | 0.0 | 0.0 | 0.00 | 0.00 | 0.00 | 13 | 1013.7 |
| 20260509101741 | 12 | 280 | 0.0 | 0.0 | 0.00 | 0.00 | 0.00 | 13 | 1013.7 |
| 20260509101241 | 12 | 280 | 0.0 | 0.0 | 0.00 | 0.00 | 0.00 | 13 | 1013.6 |
| 20260509100742 | 12 | 280 | 0.0 | 0.0 | 0.00 | 0.00 | 0.00 | 13 | 1013.6 |
| 20260509100242 | 12 | 280 | 0.0 | 0.0 | 0.00 | 0.00 | 0.00 | 13 | 1013.6 |
| 20260509095242 | 12 | 280 | 0.0 | 0.0 | 0.00 | 0.00 | 0.00 | 13 | 1013.7 |
| 20260509094741 | 12 | 280 | 0.0 | 0.0 | 0.00 | 0.00 | 0.00 | 13 | 1013.7 |
| 20260509094241 | 12 | 280 | 0.0 | 0.0 | 0.00 | 0.00 | 0.00 | 13 | 1013.7 |
| 20260509093742 | 12 | 280 | 0.0 | 0.0 | 0.00 | 0.00 | 0.00 | 13 | 1013.8 |
| 20260509093241 | 12 | 280 | 0.0 | 0.0 | 0.00 | 0.00 | 0.00 | 13 | 1013.8 |
| 20260509092741 | 12 | 280 | 0.0 | 0.0 | 0.00 | 0.00 | 0.00 | 13 | 1013.8 |
| 20260509092241 | 12 | 280 | 0.0 | 0.0 | 0.00 | 0.00 | 0.00 | 13 | 1013.9 |
| 20260509091742 | 12 | 280 | 0.0 | 0.0 | 0.00 | 0.00 | 0.00 | 13 | 1013.9 |
| 20260509091241 | 12 | 280 | 0.0 | 0.0 | 0.00 | 0.00 | 0.00 | 13 | 1013.9 |
| 20260509090741 | 12 | 280 | 0.0 | 0.0 | 0.00 | 0.00 | 0.00 | 13 | 1013.9 |
| 20260509090242 | 12 | 280 | 0.0 | 0.0 | 0.00 | 0.00 | 0.00 | 13 | 1014.1 |
| 20260509085242 | 12 | 280 | 0.0 | 0.0 | 0.00 | 0.00 | 0.00 | 13 | 1014.1 |
| 20260509084741 | 12 | 280 | 0.0 | 0.0 | 0.00 | 0.00 | 0.00 | 13 | 1014.1 |
| 20260509084241 | 12 | 280 | 0.0 | 0.0 | 0.00 | 0.00 | 0.00 | 13 | 1014.1 |
| 20260509083742 | 12 | 280 | 0.0 | 0.0 | 0.00 | 0.00 | 0.00 | 13 | 1014.1 |
| 20260509083241 | 12 | 280 | 0.0 | 0.0 | 0.00 | 0.00 | 0.00 | 13 | 1014.1 |
| 20260509082742 | 12 | 280 | 0.0 | 0.0 | 0.00 | 0.00 | 0.00 | 13 | 1014.3 |
| 20260509082241 | 12 | 280 | 0.0 | 0.0 | 0.00 | 0.00 | 0.00 | 13 | 1014.4 |
| 20260509081741 | 12 | 280 | 0.0 | 0.0 | 0.00 | 0.00 | 0.00 | 13 | 1014.3 |
| 20260509081241 | 12 | 280 | 0.0 | 0.0 | 0.00 | 0.00 | 0.00 | 13 | 1014.4 |
| 20260509080741 | 12 | 280 | 0.0 | 1.6 | 0.00 | 0.00 | 0.00 | 13 | 1014.5 |
| 20260509080241 | 12 | 280 | 0.0 | 6.4 | 0.00 | 0.00 | 0.00 | 13 | 1014.5 |
| 20260509075741 | 12 | 280 | 0.0 | 6.4 | 0.00 | 0.00 | 0.00 | 13 | 1014.5 |
| 20260509075241 | 13 | 280 | 0.0 | 4.8 | 0.00 | 0.00 | 0.00 | 13 | 1014.6 |
| 20260509074742 | 13 | 280 | 4.8 | 4.8 | 0.00 | 0.00 | 0.00 | 13 | 1014.6 |
| 20260509074241 | 13 | 280 | 0.0 | 3.2 | 0.00 | 0.00 | 0.00 | 13 | 1014.7 |
| 20260509073741 | 13 | 280 | 0.0 | 4.8 | 0.00 | 0.00 | 0.00 | 13 | 1014.5 |
| 20260509073241 | 13 | 280 | 0.0 | 4.8 | 0.00 | 0.00 | 0.00 | 13 | 1014.5 |
| 20260509072741 | 13 | 280 | 0.0 | 0.0 | 0.00 | 0.00 | 0.00 | 13 | 1014.5 |
| 20260509072241 | 13 | 280 | 0.0 | 0.0 | 0.00 | 0.00 | 0.00 | 13 | 1014.6 |
| 20260509071741 | 13 | 280 | 0.0 | 0.0 | 0.00 | 0.00 | 0.00 | 13 | 1014.5 |
| 20260509071241 | 13 | 280 | 0.0 | 0.0 | 0.00 | 0.00 | 0.00 | 13 | 1014.6 |
| 20260509070741 | 13 | 280 | 0.0 | 0.0 | 0.00 | 0.00 | 0.00 | 12 | 1014.7 |
| 20260509070241 | 13 | 280 | 0.0 | 0.0 | 0.00 | 0.00 | 0.00 | 12 | 1014.8 |
| 20260509065742 | 13 | 280 | 0.0 | 0.0 | 0.00 | 0.00 | 0.00 | 12 | 1014.7 |
| 20260509065241 | 13 | 280 | 0.0 | 0.0 | 0.00 | 0.00 | 0.00 | 12 | 1014.7 |
| 20260509064741 | 13 | 280 | 0.0 | 0.0 | 0.00 | 0.00 | 0.00 | 12 | 1014.7 |
| 20260509064241 | 13 | 280 | 0.0 | 0.0 | 0.00 | 0.00 | 0.00 | 12 | 1014.7 |
| 20260509063741 | 13 | 280 | 0.0 | 0.0 | 0.00 | 0.00 | 0.00 | 12 | 1014.7 |
| 20260509063241 | 13 | 280 | 0.0 | 0.0 | 0.00 | 0.00 | 0.00 | 12 | 1014.7 |
| 20260509062741 | 13 | 280 | 0.0 | 0.0 | 0.00 | 0.00 | 0.00 | 12 | 1014.6 |
| 20260509062241 | 13 | 280 | 0.0 | 0.0 | 0.00 | 0.00 | 0.00 | 12 | 1014.6 |
| 20260509061241 | 13 | 280 | 0.0 | 0.0 | 0.00 | 0.00 | 0.00 | 12 | 1014.6 |
| 20260509060741 | 13 | 280 | 0.0 | 0.0 | 0.00 | 0.00 | 0.00 | 12 | 1014.7 |
| 20260509060241 | 13 | 280 | 0.0 | 0.0 | 0.00 | 0.00 | 0.00 | 12 | 1014.7 |
| 20260509055741 | 13 | 280 | 0.0 | 0.0 | 0.00 | 0.00 | 0.00 | 12 | 1014.6 |
| 20260509055241 | 13 | 280 | 0.0 | 3.2 | 0.00 | 0.00 | 0.00 | 12 | 1014.7 |
| 20260509054741 | 13 | 280 | 0.0 | 3.2 | 0.00 | 0.00 | 0.00 | 12 | 1014.8 |
| 20260509054241 | 12 | 280 | 0.0 | 3.2 | 0.00 | 0.00 | 0.00 | 12 | 1014.7 |
| 20260509053741 | 12 | 280 | 1.6 | 3.2 | 0.00 | 0.00 | 0.00 | 12 | 1014.7 |
| 20260509053241 | 12 | 280 | 3.2 | 3.2 | 0.00 | 0.00 | 0.00 | 12 | 1014.8 |
| 20260509052741 | 12 | 280 | 0.0 | 3.2 | 0.00 | 0.00 | 0.00 | 12 | 1014.7 |
| 20260509052241 | 12 | 280 | 1.6 | 4.8 | 0.00 | 0.00 | 0.00 | 12 | 1014.7 |
| 20260509051741 | 12 | 280 | 0.0 | 4.8 | 0.00 | 0.00 | 0.00 | 12 | 1014.7 |
| 20260509051241 | 12 | 280 | 0.0 | 4.8 | 0.00 | 0.00 | 0.00 | 12 | 1014.6 |
| 20260509050741 | 12 | 280 | 0.0 | 4.8 | 0.00 | 0.00 | 0.00 | 12 | 1014.5 |
| 20260509050241 | 12 | 280 | 4.8 | 4.8 | 0.00 | 0.00 | 0.00 | 12 | 1014.6 |
| 20260509045741 | 12 | 280 | 0.0 | 6.4 | 0.00 | 0.00 | 0.00 | 13 | 1014.5 |
| 20260509045240 | 12 | 280 | 0.0 | 6.4 | 0.00 | 0.00 | 0.00 | 13 | 1014.4 |
| 20260509044741 | 12 | 280 | 0.0 | 6.4 | 0.00 | 0.00 | 0.00 | 13 | 1014.4 |
| 20260509044241 | 12 | 280 | 4.8 | 6.4 | 0.00 | 0.00 | 0.00 | 13 | 1014.4 |
| 20260509043741 | 12 | 280 | 0.0 | 8.0 | 0.00 | 0.00 | 0.00 | 13 | 1014.2 |
| 20260509042740 | 12 | 280 | 6.4 | 8.0 | 0.00 | 0.00 | 0.00 | 14 | 1014.2 |
| 20260509042240 | 12 | 280 | 0.0 | 8.0 | 0.00 | 0.00 | 0.00 | 14 | 1014.1 |
| 20260509041741 | 12 | 281 | 1.6 | 6.4 | 0.00 | 0.00 | 0.00 | 14 | 1014.1 |
| 20260509041241 | 12 | 281 | 0.0 | 4.8 | 0.00 | 0.00 | 0.00 | 14 | 1013.9 |
| 20260509040241 | 12 | 281 | 0.0 | 6.4 | 0.00 | 0.00 | 0.00 | 15 | 1013.8 |
| 20260509035741 | 12 | 281 | 0.0 | 6.4 | 0.00 | 0.00 | 0.00 | 15 | 1013.7 |
| 20260509035240 | 12 | 280 | 0.0 | 4.8 | 0.00 | 0.00 | 0.00 | 16 | 1013.8 |
| 20260509034740 | 12 | 280 | 0.0 | 6.4 | 0.00 | 0.00 | 0.00 | 16 | 1013.7 |
| 20260509034240 | 13 | 280 | 0.0 | 9.7 | 0.00 | 0.00 | 0.00 | 17 | 1013.7 |
| 20260509033741 | 13 | 281 | 0.0 | 9.7 | 0.00 | 0.00 | 0.00 | 18 | 1013.6 |
| 20260509033241 | 13 | 280 | 0.0 | 6.4 | 0.00 | 0.00 | 0.00 | 19 | 1013.7 |
| 20260509032240 | 13 | 280 | 0.0 | 9.7 | 0.00 | 0.00 | 0.00 | 21 | 1013.3 |
| 20260509031741 | 13 | 281 | 0.0 | 9.7 | 0.00 | 0.00 | 0.00 | 22 | 1013.4 |
| 20260509031240 | 13 | 279 | 0.0 | 8.0 | 0.00 | 0.00 | 0.00 | 22 | 1013.3 |
| 20260509030740 | 13 | 275 | 1.6 | 8.0 | 0.00 | 0.00 | 0.00 | 24 | 1013.2 |
| 20260509030241 | 13 | 265 | 0.0 | 6.4 | 0.00 | 0.00 | 0.00 | 25 | 1013.2 |
| 20260509025740 | 13 | 269 | 0.0 | 6.4 | 0.00 | 0.00 | 0.00 | 26 | 1013.2 |
| 20260509025241 | 14 | 269 | 3.2 | 8.0 | 0.00 | 0.00 | 0.00 | 27 | 1013.2 |
| 20260509024740 | 14 | 315 | 3.2 | 8.0 | 0.00 | 0.00 | 0.00 | 28 | 1013.0 |
| 20260509024241 | 15 | 276 | 0.0 | 8.0 | 0.00 | 0.00 | 0.00 | 30 | 1012.9 |
| 20260509023741 | 15 | 281 | 0.0 | 8.0 | 0.00 | 0.00 | 0.00 | 31 | 1012.9 |
| 20260509022740 | 15 | 286 | 0.0 | 11.3 | 0.00 | 0.00 | 0.00 | 34 | 1013.0 |
| 20260509022241 | 15 | 194 | 6.4 | 14.5 | 0.00 | 0.00 | 0.00 | 35 | 1012.9 |
| 20260509021741 | 16 | 242 | 0.0 | 14.5 | 0.00 | 0.00 | 0.00 | 36 | 1012.9 |
| 20260509021241 | 16 | 283 | 4.8 | 11.3 | 0.00 | 0.00 | 0.00 | 37 | 1012.9 |
| 20260509020741 | 16 | 210 | 9.7 | 11.3 | 0.00 | 0.00 | 0.00 | 38 | 1012.9 |
| 20260509020240 | 16 | 287 | 4.8 | 8.0 | 0.00 | 0.00 | 0.00 | 39 | 1012.9 |
| 20260509015741 | 17 | 277 | 6.4 | 8.0 | 0.00 | 0.00 | 0.00 | 40 | 1012.8 |
| 20260509013741 | 18 | 222 | 6.4 | 9.7 | 0.00 | 0.00 | 0.00 | 42 | 1013.0 |
| 20260509013240 | 18 | 323 | 6.4 | 9.7 | 0.00 | 0.00 | 0.00 | 42 | 1012.8 |
| 20260509012741 | 18 | 183 | 0.0 | 9.7 | 0.00 | 0.00 | 0.00 | 42 | 1012.7 |
| 20260509010741 | 19 | 260 | 0.0 | 20.9 | 0.00 | 0.00 | 0.00 | 43 | 1012.8 |
| 20260509010240 | 20 | 242 | 0.0 | 19.3 | 0.00 | 0.00 | 0.00 | 43 | 1012.8 |
| 20260509005740 | 20 | 272 | 1.6 | 16.1 | 0.00 | 0.00 | 0.00 | 43 | 1012.9 |
| 20260509004741 | 20 | 277 | 3.2 | 17.7 | 0.00 | 0.00 | 0.00 | 42 | 1012.9 |
| 20260509004240 | 21 | 284 | 3.2 | 16.1 | 0.00 | 0.00 | 0.00 | 42 | 1012.9 |
| 20260509003741 | 21 | 271 | 0.0 | 14.5 | 0.00 | 0.00 | 0.00 | 41 | 1012.9 |
| 20260509003240 | 21 | 301 | 3.2 | 16.1 | 0.00 | 0.00 | 0.00 | 41 | 1012.9 |
| 20260509002741 | 21 | 290 | 6.4 | 16.1 | 0.00 | 0.00 | 0.00 | 41 | 1013.0 |
| 20260509002240 | 21 | 261 | 0.0 | 17.7 | 0.00 | 0.00 | 0.00 | 41 | 1012.8 |
| 20260509001741 | 21 | 288 | 3.2 | 17.7 | 0.00 | 0.00 | 0.00 | 42 | 1012.9 |
| 20260509001241 | 21 | 188 | 0.0 | 17.7 | 0.00 | 0.00 | 0.00 | 41 | 1012.8 |
| 20260508235741 | 21 | 217 | 0.0 | 19.3 | 0.00 | 0.00 | 0.00 | 41 | 1013.0 |
| 20260508235241 | 21 | 290 | 1.6 | 19.3 | 0.00 | 0.00 | 0.00 | 41 | 1012.9 |
| 20260508234740 | 22 | 236 | 0.0 | 16.1 | 0.00 | 0.00 | 0.00 | 40 | 1012.9 |
| 20260508234240 | 22 | 271 | 0.0 | 11.3 | 0.00 | 0.00 | 0.00 | 40 | 1013.0 |
| 20260508233740 | 22 | 248 | 0.0 | 9.7 | 0.00 | 0.00 | 0.00 | 41 | 1013.0 |
| 20260508232740 | 21 | 331 | 4.8 | 16.1 | 0.00 | 0.00 | 0.00 | 41 | 1013.2 |
| 20260508231740 | 22 | 245 | 4.8 | 17.7 | 0.00 | 0.00 | 0.00 | 40 | 1013.3 |
| 20260508231240 | 22 | 306 | 11.3 | 16.1 | 0.00 | 0.00 | 0.00 | 40 | 1013.3 |
| 20260508230740 | 22 | 281 | 1.6 | 19.3 | 0.00 | 0.00 | 0.00 | 40 | 1013.3 |
| 20260508230240 | 22 | 263 | 3.2 | 19.3 | 0.00 | 0.00 | 0.00 | 40 | 1013.3 |
| 20260508225741 | 22 | 279 | 6.4 | 17.7 | 0.00 | 0.00 | 0.00 | 40 | 1013.5 |
| 20260508225240 | 22 | 253 | 3.2 | 16.1 | 0.00 | 0.00 | 0.00 | 40 | 1013.5 |
| 20260508224740 | 22 | 281 | 0.0 | 16.1 | 0.00 | 0.00 | 0.00 | 40 | 1013.5 |
| 20260508224240 | 22 | 259 | 11.3 | 19.3 | 0.00 | 0.00 | 0.00 | 40 | 1013.6 |
| 20260508223740 | 22 | 181 | 6.4 | 19.3 | 0.00 | 0.00 | 0.00 | 40 | 1013.7 |
| 20260508223240 | 22 | 171 | 6.4 | 17.7 | 0.00 | 0.00 | 0.00 | 40 | 1013.8 |
| 20260508221240 | 22 | 242 | 11.3 | 19.3 | 0.00 | 0.00 | 0.00 | 39 | 1014.1 |
| 20260508220240 | 22 | 259 | 4.8 | 24.1 | 0.00 | 0.00 | 0.00 | 39 | 1014.1 |
| 20260508215740 | 22 | 306 | 3.2 | 19.3 | 0.00 | 0.00 | 0.00 | 39 | 1014.2 |